Location: Unspecified
(48.7670°N, 0.0000°E)
Time: 02:17:40
(UTC+00:00)

Altair - Pass Details

Date: 24 June 2019
Orbit: 1501 x 1683 km, 47.2° (Epoch: 14 October)

Event Time Altitude Azimuth Distance (km) Brightness Sun altitude
Rises 00:12:48 0° 284° (WNW) 4,806 10.3 -17.8°
Reaches altitude 10° 00:15:53 10° 282° (WNW) 3,843 9.7 -17.7°
Maximum altitude 00:25:35 65° 204° (SSW) 1,795 7.6 -17.6°
Drops below altitude 10° 00:35:32 10° 126° (SE) 3,936 9.4 -17.4°
Sets 00:38:44 0° 123° (ESE) 4,928 9.9 -17.4°
